Location: Barrio Las Umbrías
(40.4173°N, 4.8685°W)
Time: 13:05:41
(UTC+00:00)

Gblst 52 Del rocket - Pass Details

Date: 17 August 2022
Orbit: 805 x 1365 km, 51.5° (Epoch: 27 September)

Event Time Altitude Azimuth Distance (km) Brightness Sun altitude
Rises 20:49:36 0° 223° (SW) 3,424 7.5 -17.0°
Reaches altitude 10° 20:51:59 10° 221° (SW) 2,544 6.8 -17.4°
Maximum altitude 20:57:56 71° 138° (SE) 1,021 4.4 -18.3°
Drops below altitude 10° 21:04:49 10° 56° (ENE) 2,926 6.8 -19.4°
Sets 21:07:44 0° 55° (NE) 3,975 7.5 -19.8°
